sat.trackr.live / text

‹ back to catalog

STARLINK-2193

NORAD 47770 · 2021-017BA

PAYLOAD ACTIVE UNKNOWN

§ Identity

Operator
Country
US
Launch date
2021-03-04
Launch site
AFETR
Launch vehicle
Mass (kg)
RCS (m²)

Purposes: comms

External: N2YO · Heavens-Above · Gunter

§ Orbital elements

Epoch: 2026-09-20T00:38:15.335232Z

Period
94.01 min
Inclination
53.1607°
Eccentricity
0.0001452
Mean motion
15.31728916 rev/d
Perigee alt
469.7 km
Apogee alt
471.6 km
Semi-major
6,848.8 km
B*
1.1424e-4
RAAN
19.5113°
Arg perigee
55.6250°
Mean anomaly
304.4889°
Rev number
30,764

§ Raw data

STARLINK-21931 47770U 21017BA  26263.02656638  .00003184  00000+0  11424-3 0  99912 47770  53.1607  19.5113 0001452  55.6250 304.4889 15.31728916307643

JSON: /api/v1/satellites/47770 · /tle

For live sub-satellite position, see the globe view (requires WebGL).

§ Visibility from observer

Set your observer location to see the next 7 days of passes ≥ 10°. The values pass through the URL so the page stays shareable.

No JS? Fill the form by hand. The geolocation button needs JavaScript.